Weather History for KLDJ - May, 2013

Change the Weather History Date:

Tuesday, May 7, 2013

  Actual Average (KEWR) Record (KEWR)
Temperature  
Mean Temperature 60 °F 60 °F  
Max Temperature 70 °F 69 °F 94 °F (2000)
Min Temperature 50 °F 51 °F 38 °F (1970)
Degree Days  
Heating Degree Days 5 6  
Month to date heating degree days 48  
Since 1 July heating degree days 4768  
Cooling Degree Days 0 1  
Month to date cooling degree days 7  
Year to date cooling degree days 19  
Growing Degree Days 10 (Base 50)    
Moisture  
Dew Point 53 °F    
Average Humidity 77    
Maximum Humidity 90    
Minimum Humidity 63    
Precipitation  
Precipitation 0.00 in 0.12 in 1.07 in (1942)
Month to date precipitation 0.86  
Year to date precipitation 15.66  
Snow  
Snow 0.00 in 0.00 in 0.00 in (2002)
Month to date snowfall 0.0  
Since 1 July snowfall 28.5  
Snow Depth -    
Sea Level Pressure  
Sea Level Pressure 30.14 in    
Wind  
Wind Speed 3 mph (ESE)    
Max Wind Speed 13 mph    
Max Gust Speed 18 mph    
Visibility 10 miles    
Events Rain    
T = Trace of Precipitation, MM = Missing Value Source: NWS Daily Summary

Daily Weather History Graph

Daily Weather History Graph

Search for Another Location

Airport or City:

Trip Planner

Search our weather history database for the weather conditions in past years. The results will help you decide how hot, cold, wet, or windy it might be!

Date:

Astronomy

May. 07, 2013 Rise Set
Actual Time 5:48 AM EDT 7:59 PM EDT
Civil Twilight 5:18 AM EDT 8:29 PM EDT
Nautical Twilight 4:40 AM EDT 9:06 PM EDT
Astronomical Twilight 4:00 AM EDT 9:47 PM EDT
Moon 4:21 AM EDT (5/7) 5:56 PM EDT (5/7)
Length of Visible Light 15h 11m
Length of Day
14h 11m
Waning Crescent, 5% of the Moon is Illuminated
May 7
Waning Crescent
May 9
New
May 18
First Quarter
May 25
Full
May 31
Last Quarter

Hourly Weather History & Observations

Time (EDT) Temp. Dew Point Humidity Pressure Visibility Wind Dir Wind Speed Gust Speed Precip Events Conditions
12:15 AM 53.1 °F 48.4 °F 84% 30.18 in 10.0 mi Calm Calm - N/A   Clear
12:35 AM 52.7 °F 48.2 °F 85% 30.18 in 10.0 mi Calm Calm - N/A   Clear
12:55 AM 52.9 °F 48.4 °F 85% 30.17 in 10.0 mi Calm Calm - N/A   Clear
1:15 AM 52.5 °F 47.7 °F 84% 30.16 in 10.0 mi Calm Calm - N/A   Clear
1:35 AM 52.3 °F 48.2 °F 86% 30.16 in 10.0 mi Calm Calm - N/A   Clear
1:55 AM 52.3 °F 47.5 °F 84% 30.15 in 10.0 mi Calm Calm - N/A   Clear
2:15 AM 51.8 °F 47.7 °F 86% 30.14 in 10.0 mi Calm Calm - N/A   Clear
2:35 AM 52.0 °F 47.7 °F 85% 30.14 in 10.0 mi Calm Calm - N/A   Clear
2:55 AM 51.4 °F 47.3 °F 86% 30.14 in 10.0 mi Calm Calm - N/A   Clear
3:15 AM 51.8 °F 47.8 °F 86% 30.14 in 10.0 mi Calm Calm - N/A   Clear
3:35 AM 50.9 °F 47.5 °F 88% 30.13 in 10.0 mi Calm Calm - N/A   Clear
4:15 AM 51.1 °F 47.7 °F 88% 30.13 in 10.0 mi Calm Calm - N/A   Clear
4:35 AM 51.6 °F 48.0 °F 87% 30.13 in 10.0 mi Calm Calm - N/A   Clear
4:55 AM 51.8 °F 48.0 °F 87% 30.13 in 10.0 mi Calm Calm - N/A   Clear
5:15 AM 52.0 °F 48.4 °F 88% 30.12 in 10.0 mi Calm Calm - N/A   Clear
5:35 AM 52.2 °F 48.7 °F 88% 30.13 in 10.0 mi Calm Calm - N/A   Clear
5:55 AM 52.0 °F 48.7 °F 89% 30.14 in 10.0 mi Calm Calm - N/A   Clear
6:15 AM 51.6 °F 48.7 °F 90% 30.14 in 10.0 mi Calm Calm - N/A   Clear
6:35 AM 52.3 °F 49.3 °F 89% 30.14 in 10.0 mi Calm Calm - N/A   Clear
6:55 AM 54.9 °F 50.0 °F 84% 30.14 in 10.0 mi Calm Calm - N/A   Scattered Clouds
7:15 AM 56.1 °F 48.4 °F 75% 30.14 in 10.0 mi East 5.8 mph - N/A   Scattered Clouds
7:35 AM 57.4 °F 48.7 °F 73% 30.15 in 10.0 mi ESE 4.6 mph - N/A   Clear
7:55 AM 58.1 °F 48.9 °F 71% 30.15 in 10.0 mi East 5.8 mph - N/A   Clear
8:15 AM 59.9 °F 49.1 °F 67% 30.15 in 10.0 mi East 8.1 mph - N/A   Clear
8:35 AM 59.7 °F 48.9 °F 67% 30.16 in 10.0 mi East 8.1 mph - N/A   Clear
8:55 AM 61.0 °F 50.0 °F 67% 30.16 in 10.0 mi ENE 9.2 mph - N/A   Clear
9:15 AM 61.2 °F 49.5 °F 65% 30.17 in 10.0 mi ENE 9.2 mph - N/A   Mostly Cloudy
9:35 AM 62.1 °F 50.9 °F 67% 30.17 in 10.0 mi ENE 8.1 mph - N/A   Mostly Cloudy
9:55 AM 63.5 °F 51.1 °F 64% 30.16 in 10.0 mi ENE 6.9 mph - N/A   Scattered Clouds
10:15 AM 64.6 °F 52.3 °F 64% 30.16 in 10.0 mi ENE 5.8 mph - N/A   Clear
10:35 AM 64.8 °F 53.6 °F 67% 30.16 in 10.0 mi NE 5.8 mph - N/A   Scattered Clouds
10:55 AM 65.1 °F 53.1 °F 65% 30.17 in 10.0 mi NNE 3.5 mph - N/A   Mostly Cloudy
11:15 AM 66.6 °F 54.9 °F 66% 30.16 in 10.0 mi South 4.6 mph - N/A   Mostly Cloudy
11:35 AM 68.0 °F 55.2 °F 64% 30.15 in 10.0 mi East 6.9 mph - N/A   Mostly Cloudy
12:15 PM 68.4 °F 55.4 °F 63% 30.15 in 10.0 mi SSE 6.9 mph - N/A   Overcast
12:35 PM 67.3 °F 55.4 °F 66% 30.15 in 10.0 mi SSE 9.2 mph - N/A   Mostly Cloudy
12:55 PM 67.6 °F 55.6 °F 65% 30.14 in 10.0 mi SSE 9.2 mph - N/A   Mostly Cloudy
1:15 PM 67.6 °F 55.9 °F 66% 30.14 in 10.0 mi SE 9.2 mph - N/A   Scattered Clouds
1:35 PM 68.2 °F 56.1 °F 65% 30.13 in 10.0 mi ESE 9.2 mph - N/A   Clear
1:55 PM 69.8 °F 56.5 °F 63% 30.13 in 10.0 mi SE 11.5 mph - N/A   Clear
2:15 PM 69.8 °F 57.2 °F 64% 30.13 in 10.0 mi SE 10.4 mph - N/A   Clear
2:35 PM 69.8 °F 57.4 °F 65% 30.12 in 10.0 mi SSE 10.4 mph - N/A   Clear
2:55 PM 70.9 °F 57.9 °F 63% 30.12 in 10.0 mi SSE 10.4 mph - N/A   Clear
3:15 PM 66.7 °F 56.8 °F 70% 30.12 in 10.0 mi SE 12.7 mph 18.4 mph N/A   Clear
3:35 PM 69.1 °F 57.7 °F 67% 30.11 in 10.0 mi SE 11.5 mph 17.3 mph N/A   Clear
3:55 PM 68.0 °F 57.7 °F 70% 30.11 in 10.0 mi SE 10.4 mph - N/A   Clear
4:15 PM 66.6 °F 56.8 °F 71% 30.11 in 10.0 mi SE 11.5 mph - N/A   Clear
4:35 PM 64.2 °F 56.3 °F 75% 30.11 in 10.0 mi SE 12.7 mph - N/A   Clear
4:55 PM 64.0 °F 56.3 °F 76% 30.11 in 10.0 mi SE 6.9 mph - N/A   Clear
5:15 PM 64.0 °F 56.3 °F 76% 30.11 in 10.0 mi SE 6.9 mph - N/A   Clear
5:55 PM 62.6 °F 56.8 °F 81% 30.10 in 10.0 mi SSE 6.9 mph - N/A Rain Light Rain
6:15 PM 61.9 °F 58.3 °F 88% 30.09 in 7.0 mi SE 3.5 mph - N/A Rain Light Rain
6:35 PM - - N/A% - - North - - N/A   Unknown
6:55 PM - - N/A% - - North - - N/A   Unknown
7:15 PM - - N/A% - - North - - N/A   Unknown
7:55 PM - - N/A% - - North - - N/A   Unknown
8:15 PM - - N/A% - - North - - N/A   Unknown
8:35 PM - - N/A% - - North - - N/A   Unknown
8:55 PM 59.9 °F 56.7 °F 89% 30.11 in 10.0 mi Calm Calm - N/A   Unknown
9:15 PM 60.3 °F 57.2 °F 90% 30.12 in 10.0 mi Calm Calm - N/A   Overcast
9:35 PM 61.2 °F 57.6 °F 88% 30.12 in 10.0 mi Calm Calm - N/A   Mostly Cloudy
9:55 PM 61.3 °F 57.4 °F 87% 30.12 in 10.0 mi Calm Calm - N/A   Mostly Cloudy
10:15 PM 61.3 °F 57.6 °F 87% 30.12 in 10.0 mi Calm Calm - N/A   Overcast
10:35 PM 61.7 °F 57.6 °F 86% 30.12 in 10.0 mi ESE 3.5 mph - N/A   Mostly Cloudy
10:55 PM 62.8 °F 57.6 °F 83% 30.11 in 10.0 mi East 6.9 mph - N/A   Overcast
11:15 PM 63.1 °F 57.6 °F 82% 30.10 in 10.0 mi East 5.8 mph - N/A   Scattered Clouds
11:35 PM 63.7 °F 57.7 °F 81% 30.10 in 10.0 mi ENE 4.6 mph - N/A   Scattered Clouds
11:55 PM 63.9 °F 58.1 °F 81% 30.10 in 10.0 mi East 4.6 mph - N/A   Scattered Clouds